NIMBUS 2 DEB, 28201

Orbit data source: Space-Track

NIMBUS 2 DEB, 28201 is space debris in SSO originally from a launch on Sun, 15 May 1966 UTC launched from the Air Force Western Test Range (AFWTR). Debris objects in space refer to the collection of defunct objects orbiting the Earth. Examples of debris include non-operational satellites, rocket bodies, and fragments generated from explosions, collisions, or faulty payload assembly.

Loading next visibility...
Identifier
28201, 1966-040P
Orbit
SSO
Country
Flag of USUS
Related business
Manufacturer
Unknown
Mission
Spacecraft
Bus & Motor
Unknown
Mass
Unknown
Launch date (UTC)
1966-05-15 (59 years ago)
Launch vehicle
Unknown
Launch site
Air Force Western Test Range (AFWTR)
Object type
Payload
Rocket body
Debris
Shape & HBR
Unknown shape, 0.1 m
Radar Cross Section
Small (<0.1 m²)

Expand to show TLE details & history
Last TLE update: 1 day ago

TLE from 1 day ago
0 NIMBUS 2 DEB
1 28201U 66040P   25286.50339679  .00002830  00000-0  37675-2 0  9997
2 28201 100.2610 192.9586 0052843 234.6352 307.9959 13.60898645617648
Epoch: 2025-10-13T12:04Z
TLE epoch observation values (Epoch: 2025-10-13T12:04:53.482Z)
Latitude
-2.24298°
Longitude
169.02637°
Altitude
1,011.546 km
Speed
7.358 km/s
True Right ascension
00h 50m 13s
True Declination
-2° 13' 48"
Sunlit
Object was in full shadow at epoch
Visualization orbit readout
Latitude
Unknown
Longitude
Unknown
Altitude
Unknown
Speed
Unknown
Apparent Right ascension
Unknown
Apparent Declination
Unknown
Sunlit
N/A
Visualization observer readout
Local Sidereal Time
11:45:33
Azimuth
Unknown
Elevation
Unknown
Doppler factor
Unknown
Orbital elements
Apogee altitude
1,068.89 km
Perigee altitude
990.599 km
Semi-major axis
7,407.881 km
Eccentricity
0.00528
Inclination
100.261°
RAAN
192.9586°
Arg. of periapsis
234.6352°
True anomaly
307.51676°
Mean anomaly
307.9959°
Eccentric anomaly
307.75653°
Mean motion
3.4041 °/min
Orbital period
105.75 mins
BSTAR
0.0037675
Loading maneuver chart data...
Computing Atmospheric mass density...
Loading historical data...
Loading historical data...
Loading historical data...
Loading historical data...
Loading historical data...
Loading historical data...
Loading historical data...

Documentation

Showing up to 5 results
|